Overview Statistics Trail Chart Weather Telemetry Raw packets
 

This is the latest recevied weather packets stored in our database for station/object OM5AST-13. If no packets are shown the sender has not sent any weather packets the latest 10 day(s).

<< 6 7 8 9 10 11 12 >>
Time Temp. Humidity Pressure Rain* Wind** Luminosity Snow
1788399835 21.11° C 54% - 0 mm - 0 W/m² -
1788398635 21.67° C 54% - 0 mm - 0 W/m² -
1788397438 21.67° C 54% - 0 mm - 0 W/m² -
1788396235 22.22° C 53% - 0 mm - 0 W/m² -
1788395035 22.22° C 51% - 0 mm - 0 W/m² -
1788393835 22.78° C 50% - 0 mm - 0 W/m² -
1788392635 22.78° C 47% - 0 mm - 0 W/m² -
1788391435 22.78° C 47% - 0 mm - 0 W/m² -
1788390235 22.78° C 49% - 0 mm - 0 W/m² -
1788389035 23.89° C 51% - 0 mm - 0 W/m² -
1788387835 23.33° C 56% - 0 mm - 0 W/m² -
1788386635 23.33° C 55% - 0 mm - 0 W/m² -
1788385434 23.33° C 54% - 0 mm - 0 W/m² -
1788384235 23.33° C 54% - 0 mm - 0 W/m² -
1788383035 23.33° C 52% - 0 mm - 0 W/m² -
1788381835 23.33° C 53% - 0 mm - 0 W/m² -
1788380635 23.33° C 53% - 0 mm - 0 W/m² -
1788379435 23.33° C 53% - 0 mm - 0 W/m² -
1788378235 23.89° C 52% - 0 mm - 0 W/m² -
1788377035 24.44° C 49% - 0 mm - 0 W/m² -
1788375835 25° C 49% - 0 mm - 0 W/m² -
1788374635 25.56° C 48% - 0 mm - 0 W/m² -
1788373435 26.11° C 46% - 0 mm - 0 W/m² -
1788372235 27.22° C 44% - 0 mm - 0 W/m² -
1788371035 28.33° C 40% - 0 mm - 0 W/m² -

* Rain latest hour (hover to see other rain measurements)
** Current wind speed in m/s (hover to see current wind gust speed)